Regional Weather Roundup
Issued by NWS Sterling, VA

Home | Current Version | Previous Version | Text Only | Print | Product List | Glossary On
Versions: 1 2 3 4 5 6 7 8 9 10 11 12 13 14 15 16 17 18 19 20 21 22 23 24 25 26 27 28 29 30 31 32 33 34 35 36 37 38 39 40 41 42 43 44 45 46 47 48 49 50
000
ASUS41 KLWX 200310
RWRLWX

REGIONAL WEATHER ROUNDUP
NATIONAL WEATHER SERVICE BALTIMORE MD/WASHINGTON DC
1000 PM EST SUN FEB 19 2017

Note: "FAIR" indicates few or no clouds below 12,000 feet
with no significant weather and/or obstructions to visibility.
 TC=TEMPERATURE CELSIUS

 * =Non NWS site. Station does not report precipitation (e.g. rain,
    snow, etc.), thunder, or fog.

DCZ001-MDZ009-015-VAZ040>042-051-053>054-200400-
WASHINGTON METRO

CITY           SKY/WX    TMP DP  RH WIND       PRES   REMARKS
WASHINGTON NAT PTCLDY    59  42  53 NW12      30.04R
DULLES         CLEAR     55  41  59 NW12      30.05R
ANDREWS AFB    CLEAR     57  41  54 W9        30.03R
FT BELVOIR     CLEAR     58  41  54 NW12      30.04R
QUANTICO       CLEAR     59  40  49 NW7       30.05R
COLLEGE PARK*  CLEAR     55  39  54 W5        30.03R
LEESBURG*      CLEAR     54  45  71 NW9       30.07R
MANASSAS*      CLEAR     55  40  56 N5        30.06R
GAITHERSBURG*  CLEAR     55  39  54 NW12G18   30.07R

$$

MDZ006>007-011-014-200400-
BALTIMORE METRO

CITY           SKY/WX    TMP DP  RH WIND       PRES   REMARKS
BWI AIRPORT    CLEAR     53  41  63 W9        30.01R
MD SCIENCE CTR   N/A     61  38  42 MISG      30.01R
MARTIN STATE   CLEAR     55  43  62 W12       30.02R
ANNAPOLIS      PTCLDY    59  41  51 W7        30.01R
FORT MEADE*    CLEAR     52  39  62 W5        30.04S

$$

MDZ012-015-019>023-200400-
MARYLAND EASTERN SHORE

CITY           SKY/WX    TMP DP  RH WIND       PRES   REMARKS
OCEAN CITY     CLEAR     55  42  61 NW7       29.99R
SALISBURY      CLEAR     58  42  55 NW10      29.99R
BAY BRIDGE AP* CLEAR     52  41  66 W6        30.01R
CAMBRIDGE*     CLEAR     55  41  58 W5        30.02R
EASTON*        CLEAR     58  40  49 W5        30.05R

$$

MDZ017>025-200400-
SOUTHERN MARYLAND

CITY           SKY/WX    TMP DP  RH WIND       PRES   REMARKS
PATUXENT RIVER CLEAR     55  42  61 NW9       30.03R
ST INIGOES     CLEAR     60  38  43 VRB5      30.02R
LEONARDTOWN*   CLEAR     59  37  44 W6        30.05R

$$

MDZ003>005-200400-
NORTH CENTRAL MARYLAND

CITY           SKY/WX    TMP DP  RH WIND       PRES   REMARKS
FREDERICK*     CLEAR     55  45  67 W7        30.07R
HAGERSTOWN APT PTCLDY    56  43  61 W9        30.05R
WESTMINSTER*   PTCLDY    55  43  62 NW9       30.03R

$$

MDZ501>502-200400-
WESTERN MARYLAND

CITY           SKY/WX    TMP DP  RH WIND       PRES   REMARKS
OAKLAND*       CLOUDY    41  41 100 W10G20    30.12R FOG
CUMBERLAND*    CLEAR     54  43  66 W10G18    30.14S

$$

VAZ025>031-200400-
SHENANDOAH VALLEY

CITY           SKY/WX    TMP DP  RH WIND       PRES   REMARKS
WINCHESTER*    CLEAR     52  39  62 W15       30.07R
FRONT ROYAL*   CLEAR     55  37  50 SW6       30.07R
LURAY*         CLEAR     45  37  76 CALM      30.09R
NEW MARKET*    CLEAR     39  33  78 CALM      30.09R
STAUNTON*      CLEAR     41  33  73 CALM      30.11S
WAYNESBORO*    PTCLDY    51  39  63 W7        30.09R

$$

WVZ021-048>050-054>055-200400-
EASTERN WEST VIRGINIA PANHANDLE

CITY           SKY/WX    TMP DP  RH WIND       PRES   REMARKS
MARTINSBURG    PTCLDY    55  42  61 W12       30.06R
PETERSBURG*    CLEAR     43  39  86 CALM      30.14R

$$

VAZ036>039-050-200400-
CENTRAL FOOTHILLS

CITY           SKY/WX    TMP DP  RH WIND       PRES   REMARKS
CHARLOTTESVILL CLEAR     62  34  35 W6        30.05R
CULPEPER*      PTCLDY    48  36  62 CALM      30.06R
ORANGE*        PTCLDY    45  36  70 CALM      30.07R
GORDONSVILLE*  PTCLDY    46  37  71 CALM      30.05R
WARRENTON*     CLEAR     46  33  60 CALM      30.05R

$$

VAZ055>057-200400-
NORTH AND CENTRAL PIEDMONT

CITY           SKY/WX    TMP DP  RH WIND       PRES   REMARKS
FREDERICKSBRG* PTCLDY    59  39  47 N3        30.04R
STAFFORD*      CLEAR     55  37  49 CALM      30.08S

$$

NCZ024-NYZ072-PAZ021-071-VAZ022-071-200400-
OTHER REGIONAL OBSERVATIONS

CITY           SKY/WX    TMP DP  RH WIND       PRES   REMARKS
NEW YORK CITY  CLEAR     56  31  38 N6        29.98R
PHILADELPHIA   CLEAR     59  33  37 W9        29.97R
PITTSBURGH     PTCLDY    50  38  63 W5        30.12R
ROANOKE        CLEAR     50  39  66 CALM      30.15R
RICHMOND       CLEAR     56  41  57 N7        30.03R
RALEIGH        CLEAR     59  42  53 CALM      30.08R

$$

ANZ530>537-200400-
MARINE OBSERVATIONS

STATION/POSITION TIME  TEMP    WIND        PRES
                       AIR SEA DIR/SP/G
                 (UTC) (F)     (DEG/KT/KT) (MB)
THOMAS PT LIGHT  0300   59 40  290/ 13/ 14   N/A
BALT KEY BRIDGE  0248   59     270/  8/  8 1016.1R
COVE POINT       0248   60     330/ 12/ 16 1017.1R
LEWISETTA        0248   59 44  330/  8/ 10 1016.4R
SOLOMONS ISLAND  0242   58 43  330/  9/ 12   N/A
PINEY POINT      0248           10/ 13/ 14   N/A

$$




USA.gov is the U.S. government's official web portal to all federal, state and local government web resources and services.